Temp
6 7 7 7 7 7 7 7 7 7 7 7 7 7 7 7 7 8 8 7 8 8 8 8 8 8 8 8 8 8 9 12 14 14 14 15 14 14 15 15 15 16 16 17 18 18 17 18 18 17 18 18 18 19 19 20 21 21 22 22 22 23 23 24 25 25 25 26 26 26 26 27 28 28 28 28 28 29 29 28 27 26 25 23 23 21 20 19
6 6 6 7 7 7 7 7 7 7 7 7 7 7 7 7 7 7 7 7 8 8 8 7 7 8 7 8 8 8 10 11 12 14 14 15 15 15 15 15 16 16 16 16 17 16 17 17 16 16 18 19 18 18 19 19 20 22 22 21 22 23 24 24 25 25 25 26 26 27 27 27 28 29 28 28 28 28 29 28 26 26 24 22 22 21 20 19
6 6 6 6 7 7 7 7 7 7 7 7 7 7 7 7 8 8 8 7 8 7 7 7 8 8 7 8 9 9 10 10 13 15 15 15 15 15 15 16 16 16 16 16 16 16 16 16 15 16 18 19 18 18 19 19 20 21 21 22 22 22 23 22 22 23 22 23 25 26 26 26 28 28 28 28 29 29 29 28 26 27 26 23 21 21 20 20
6 6 6 6 6 6 6 6 7 6 6 7 7 7 7 7 8 7 7 8 7 7 7 7 7 8 8 8 9 9 9 11 15 15 14 15 15 15 16 16 16 16 16 16 16 16 16 15 15 16 18 18 17 17 19 19 19 20 20 21 21 20 22 21 20 21 21 22 23 23 24 25 25 26 27 28 28 28 29 29 28 28 28 24 21 21 21 20
6 6 6 6 6 6 6 6 6 6 6 7 7 7 7 7 7 7 7 7 7 7 7 7 7 7 8 9 10 9 10 15 16 14 14 15 15 15 15 16 16 16 16 16 16 16 16 16 16 17 17 18 18 18 19 18 18 19 20 20 19 19 21 21 20 20 20 21 22 22 23 23 24 25 26 27 28 29 29 29 29 28 28 25 22 21 21 20
6 6 6 6 6 6 6 6 6 6 6 7 7 7 7 7 7 7 7 7 7 7 7 7 7 7 8 10 10 10 13 16 15 13 14 14 15 15 15 16 16 16 16 16 16 16 16 16 17 17 17 17 17 18 18 17 18 19 19 18 18 19 20 20 19 19 19 21 21 22 22 22 22 24 25 25 27 28 29 29 29 29 28 24 22 21 21 20
6 6 6 6 6 6 6 6 6 6 6 6 7 7 7 7 8 7 7 7 7 7 7 7 7 7 8 10 11 10 12 15 13 13 14 14 15 15 16 16 15 16 16 16 16 16 16 16 17 16 16 17 16 17 17 16 17 18 18 18 18 18 19 19 19 19 19 20 21 21 21 21 22 23 23 24 26 27 27 27 28 29 27 23 22 21 20 20
6 6 6 6 6 6 6 6 6 6 6 6 7 7 7 8 9 9 8 7 7 7 7 7 7 7 8 9 11 11 12 13 13 13 13 13 15 15 16 16 15 16 15 15 15 15 15 15 15 15 16 17 15 16 16 17 17 17 17 17 17 18 18 19 19 19 20 20 20 20 21 21 21 22 22 23 25 25 26 26 26 27 25 22 22 21 21 21
6 6 6 6 6 6 6 6 6 6 6 6 7 7 7 8 9 9 9 8 7 7 7 7 7 7 8 8 9 12 14 13 13 13 14 14 14 15 15 15 15 15 15 15 15 16 16 15 15 15 16 16 15 16 16 17 17 16 16 16 17 17 18 19 19 19 20 20 20 20 21 21 21 22 22 23 24 25 26 25 26 26 24 23 22 21 21 20
6 6 6 6 6 6 6 6 6 6 6 6 7 8 9 9 9 10 10 9 9 8 7 7 7 7 8 8 10 13 14 13 13 14 14 15 15 15 15 15 15 15 15 15 15 16 15 15 15 15 15 15 15 16 15 16 17 15 16 16 17 17 17 18 18 19 19 20 20 20 21 21 22 21 22 24 24 25 25 25 24 25 25 24 22 21 21 20
6 6 6 6 6 6 6 6 6 6 6 7 8 9 10 10 11 11 11 11 10 9 8 7 7 7 7 8 10 13 13 13 14 14 15 15 15 15 15 15 15 15 15 15 15 15 15 15 15 15 15 15 15 15 15 16 16 16 16 16 17 17 17 18 18 19 19 20 20 20 20 21 22 21 22 23 23 24 25 24 24 24 26 25 23 22 21 21
6 6 6 6 6 6 6 6 6 6 7 8 10 10 10 10 11 12 11 11 11 10 8 7 7 7 7 8 10 13 13 14 14 14 15 15 15 15 15 15 15 15 14 14 15 15 15 15 15 15 15 15 15 16 15 15 16 16 16 17 17 17 17 18 18 19 19 19 20 20 20 21 22 22 23 24 24 24 24 24 24 24 25 24 24 23 22 22
5 5 6 6 6 6 6 6 6 6 7 9 10 11 11 11 11 12 11 11 11 11 9 8 8 7 7 10 12 13 14 14 14 15 15 15 15 15 15 15 15 15 14 14 14 15 15 15 15 15 15 15 15 16 16 15 16 16 16 17 17 17 18 17 17 18 19 19 20 20 20 21 22 23 23 23 23 23 24 24 24 23 24 24 24 23 23 22
5 5 5 6 5 6 6 6 6 6 8 10 11 11 11 11 11 11 11 11 10 10 9 8 8 7 8 13 14 13 14 14 15 15 15 15 15 16 15 15 15 15 15 15 14 14 15 14 15 15 15 15 15 16 16 15 15 16 16 16 16 17 18 17 17 18 18 19 20 20 19 21 23 23 22 23 23 23 23 24 23 23 23 23 24 23 23 22
5 5 5 5 5 6 6 6 6 7 8 10 11 12 11 11 11 11 11 10 9 9 9 8 7 7 10 14 14 14 14 15 15 15 15 15 14 15 15 15 15 15 15 15 15 14 15 14 15 15 15 15 15 15 15 15 15 15 16 17 16 17 17 17 17 18 18 19 20 19 19 20 22 22 22 22 22 22 22 23 23 22 22 23 23 23 23 23
5 5 5 5 5 6 6 6 6 8 9 11 11 12 11 11 11 11 10 10 9 9 8 8 7 7 11 15 14 14 14 14 15 15 15 14 14 14 14 15 15 15 15 15 15 14 14 15 15 15 15 15 15 15 15 15 15 15 16 16 16 16 17 17 17 17 18 19 19 19 19 20 21 21 21 21 21 22 22 22 22 22 22 23 23 23 23 23
5 5 5 5 6 6 6 7 8 9 10 11 11 12 11 11 10 10 10 9 9 8 8 8 7 7 12 15 15 15 14 14 14 14 15 14 14 14 13 14 14 15 16 15 15 14 14 15 14 14 14 14 14 15 15 15 16 15 15 15 15 15 16 16 17 17 17 18 18 18 18 19 20 20 20 21 20 21 21 21 21 22 22 22 23 23 24 24
5 5 5 5 6 6 6 8 9 10 10 11 12 12 11 10 10 10 10 9 8 8 9 8 8 10 14 15 14 14 13 13 14 14 15 14 14 14 13 14 14 14 15 15 15 14 15 14 14 14 14 14 14 14 15 15 15 15 14 15 14 14 15 15 16 17 17 17 17 17 18 18 19 19 20 20 20 20 20 21 21 21 22 22 22 23 24 24
5 5 5 5 6 6 7 9 10 10 10 11 12 11 11 10 10 10 10 10 10 11 12 11 11 13 15 15 14 13 13 13 14 14 15 14 14 14 13 14 14 14 14 14 15 14 14 14 14 14 14 14 14 15 15 15 14 14 14 14 14 14 15 15 15 16 16 16 16 17 17 18 18 19 19 19 19 19 20 20 20 21 21 22 22 22 23 23
5 5 5 6 6 6 8 9 10 10 10 11 12 11 11 10 11 12 10 10 10 11 12 12 11 12 14 14 13 13 13 14 14 14 14 14 14 14 14 14 14 14 14 14 14 14 14 14 14 14 14 14 14 14 15 14 14 14 14 14 14 14 14 15 15 15 16 15 16 17 17 17 17 18 18 18 19 19 19 20 20 21 21 21 21 22 23 23
5 5 5 6 6 7 8 9 9 10 10 11 11 10 9 8 10 11 9 10 10 9 10 11 9 11 12 12 12 12 12 13 13 14 14 14 14 14 14 14 14 14 13 13 13 13 13 13 14 14 14 14 14 13 13 13 13 13 13 14 14 14 14 15 14 15 16 15 16 17 16 17 17 18 18 18 18 18 19 19 20 20 21 21 21 22 22 23
5 5 5 6 6 8 9 10 9 9 10 10 10 9 9 8 9 9 8 10 10 8 9 9 9 10 11 11 11 11 11 12 13 14 14 14 14 14 13 13 13 13 13 12 13 13 13 13 14 14 13 13 13 13 13 13 13 13 14 13 13 14 14 14 14 15 16 15 15 16 16 16 17 17 18 18 18 18 19 19 19 20 20 20 21 21 22 23
5 5 5 6 7 8 9 10 10 9 10 9 9 8 8 8 9 9 9 9 10 10 10 11 11 12 13 13 12 12 12 13 13 14 14 14 14 13 13 13 13 13 12 13 13 13 13 13 14 14 13 13 12 12 12 13 13 13 13 13 13 14 14 14 15 15 16 15 15 16 16 16 17 17 17 18 18 18 19 19 19 19 20 20 21 21 21 22
5 5 6 6 8 9 10 10 10 9 9 9 8 8 8 9 9 9 9 8 9 11 12 12 11 12 13 14 13 12 13 12 12 13 14 13 13 13 13 13 13 12 13 13 13 12 13 13 13 13 13 13 13 13 12 13 13 13 13 13 14 14 13 14 14 15 15 15 16 15 15 16 17 17 17 18 18 18 19 19 19 19 19 20 20 20 21 21
6 5 6 7 9 10 10 10 10 9 9 9 9 9 9 9 9 9 9 9 11 13 13 12 11 12 14 13 13 13 12 12 12 13 13 13 13 13 13 13 13 13 13 12 12 12 13 13 13 13 13 13 12 13 13 13 13 13 13 13 14 14 13 13 14 14 14 14 16 15 14 15 17 17 17 19 18 18 19 19 19 20 20 20 20 20 21 21
6 6 6 7 10 11 11 10 10 9 9 9 9 9 9 9 9 9 10 11 13 14 14 13 13 14 14 13 13 13 12 13 13 13 13 13 13 13 13 13 13 12 12 12 12 12 13 13 13 13 13 13 12 13 13 13 13 13 13 14 14 14 13 14 14 13 13 14 16 15 14 15 16 17 17 18 18 18 19 19 19 20 20 21 21 21 21 21
7 7 6 7 10 10 10 10 10 9 10 9 9 9 9 9 9 9 10 13 14 13 13 14 14 14 14 13 13 13 12 13 13 13 12 12 13 13 12 12 12 12 12 12 12 13 12 12 13 13 13 13 13 13 13 13 13 13 13 14 14 14 13 14 14 14 14 14 15 15 15 14 14 16 17 17 17 18 18 19 19 20 20 20 20 21 21 21
7 7 7 8 9 10 9 9 9 9 10 9 9 9 9 9 9 9 12 14 13 13 14 14 14 15 14 13 13 13 12 12 13 12 12 12 12 12 12 12 12 12 12 11 12 13 12 12 12 12 12 12 13 13 13 13 13 13 14 14 14 14 14 14 14 14 14 14 13 15 15 13 14 16 17 17 17 17 18 19 20 20 21 20 20 20 20 21
8 8 8 9 10 10 10 9 9 9 9 9 9 9 9 9 9 10 13 14 13 13 14 14 15 14 13 13 13 12 12 12 12 12 12 12 12 11 11 11 11 11 11 11 12 13 13 13 12 12 12 12 13 13 13 13 13 14 14 14 14 14 14 14 14 14 14 13 12 14 15 13 14 16 17 17 17 17 18 19 20 20 21 21 21 20 20 21
9 9 9 10 10 10 10 10 10 10 9 9 9 9 8 8 10 12 14 13 12 13 14 14 14 13 12 12 12 11 11 11 11 11 11 11 11 11 11 10 10 10 10 10 11 12 12 12 12 11 12 12 13 13 13 13 13 14 13 14 14 14 14 14 14 14 13 12 12 14 15 14 13 15 17 17 17 18 18 19 20 20 21 21 21 21 21 21
10 10 11 11 11 10 10 10 10 10 9 9 9 8 8 10 12 13 14 12 12 13 13 13 13 12 12 10 11 11 11 11 10 10 11 11 11 11 11 11 10 10 10 11 11 11 11 11 11 11 12 13 12 13 13 13 13 13 13 14 13 13 14 13 13 13 11 11 14 15 15 14 13 15 17 17 18 19 19 19 19 20 20 21 21 21 21 21
11 11 12 12 12 11 11 10 10 10 9 9 8 8 10 13 13 12 13 12 12 13 12 12 12 12 11 10 10 11 11 10 10 10 10 10 10 10 11 11 11 11 12 11 11 11 12 12 11 11 12 13 12 12 13 13 13 13 13 13 12 12 12 12 12 12 11 13 15 15 15 14 14 15 17 17 18 19 19 19 20 20 20 20 21 21 21 21
11 12 12 12 12 11 11 10 10 10 9 9 8 9 12 14 13 11 11 12 12 12 11 11 11 11 10 11 11 10 10 10 10 10 10 9 10 11 10 9 9 11 11 10 10 11 12 12 11 11 12 13 12 12 12 13 13 13 13 12 12 12 11 10 11 12 12 13 15 15 15 14 14 16 17 18 18 19 19 20 20 20 20 20 21 21 21 21
11 12 12 11 11 11 11 10 10 10 9 9 10 12 14 14 12 11 11 11 11 11 11 11 10 10 10 11 11 10 10 10 9 10 10 9 10 11 11 9 8 10 10 10 10 10 11 12 12 12 12 12 13 13 13 13 13 13 14 13 12 12 11 10 11 12 12 13 14 14 14 13 15 17 18 18 19 19 20 20 20 20 20 21 21 21 22 22
12 12 12 11 11 11 11 10 10 10 9 10 12 13 13 12 11 11 11 11 11 11 11 10 9 10 11 11 10 10 10 11 10 10 10 10 10 11 11 10 9 9 10 10 10 10 10 12 12 12 12 12 13 13 14 13 12 13 14 12 12 13 13 12 12 12 12 12 13 14 14 15 16 17 18 18 19 19 19 20 20 20 21 21 21 21 21 21
12 12 11 11 11 11 11 10 10 9 9 12 14 13 12 12 11 10 11 11 11 10 10 10 10 10 11 11 11 10 10 10 10 10 10 10 11 11 11 10 9 10 11 10 10 10 10 11 12 12 11 12 13 13 13 13 12 13 12 12 13 14 13 12 11 12 11 11 12 13 14 15 16 17 18 19 19 19 19 19 20 20 21 21 20 20 20 21
12 11 11 11 11 11 10 10 10 9 10 13 14 11 10 11 11 11 11 11 10 9 9 10 10 10 10 10 11 11 11 10 10 10 10 11 12 11 11 11 10 10 11 10 10 10 10 11 12 12 12 12 12 12 12 13 13 12 12 13 14 13 12 12 11 11 11 11 12 13 13 14 15 15 17 18 18 18 18 18 19 20 20 20 19 20 20 20
10 10 10 10 10 10 10 10 10 10 12 13 12 11 10 10 11 11 11 11 10 9 9 10 10 10 10 10 11 11 11 11 10 10 10 10 11 12 12 12 11 10 11 10 10 9 9 9 11 12 12 12 12 11 12 12 13 13 13 13 13 12 11 12 11 11 11 11 12 13 13 14 14 15 17 17 17 18 17 17 17 18 19 19 19 20 20 20
9 11 11 10 10 10 11 11 10 11 13 12 11 10 9 10 11 11 11 10 9 9 9 9 9 9 9 10 10 11 10 10 10 10 10 10 11 12 12 12 12 11 11 10 10 9 8 9 11 11 11 12 11 11 11 11 12 12 12 13 13 12 12 12 12 12 12 11 11 12 13 14 15 16 17 16 17 17 17 16 16 16 17 19 19 19 20 20
8 11 12 10 11 11 11 11 11 12 13 10 9 9 9 9 11 11 11 10 10 10 10 9 9 9 9 10 10 10 10 10 10 10 10 10 11 12 12 12 12 11 10 10 10 9 8 9 9 10 11 11 11 11 10 11 12 12 11 11 12 12 12 12 12 13 13 12 11 11 12 14 16 17 16 16 16 16 15 15 15 16 17 18 18 18 19 19
7 11 12 10 11 11 11 12 10 9 10 9 8 9 9 10 10 11 10 10 10 10 9 9 9 9 9 10 10 10 10 10 10 10 10 10 11 12 12 12 11 11 10 10 9 9 9 9 9 10 10 10 11 11 12 11 12 12 12 12 12 13 12 12 11 12 13 12 12 12 11 14 16 16 16 16 15 15 14 14 15 16 17 17 18 18 18 18
9 12 11 11 11 11 12 11 7 6 8 9 9 8 9 10 10 10 10 9 10 10 9 9 9 9 9 9 10 10 9 9 10 10 10 10 11 12 12 11 11 11 11 10 10 9 9 9 8 9 10 10 11 11 11 12 12 12 13 13 13 13 12 12 11 12 13 12 13 12 11 13 16 16 15 15 14 14 14 14 15 16 17 17 18 18 18 18
9 10 11 11 11 11 12 11 8 7 9 9 8 8 9 9 9 9 10 9 9 9 9 9 9 9 9 9 9 9 9 9 10 10 10 11 11 12 12 12 11 11 11 10 9 9 9 8 8 9 10 11 10 9 10 11 11 12 12 13 13 13 13 13 13 13 13 12 13 12 11 13 16 16 16 15 14 14 14 15 16 17 17 17 18 18 18 18
6 6 8 10 12 12 11 10 9 9 8 8 8 9 9 8 9 9 9 9 9 9 9 9 9 9 9 8 8 9 9 9 9 10 10 10 11 12 12 12 11 11 11 11 10 9 9 9 8 9 10 10 10 9 10 11 11 11 12 12 12 12 13 13 13 13 12 13 13 12 12 14 16 16 16 15 15 15 16 16 17 17 17 17 18 18 18 18
6 7 7 9 11 11 9 8 8 8 7 7 7 8 8 8 9 9 8 8 9 9 9 9 8 8 8 8 8 8 8 8 9 10 10 10 11 12 12 12 11 11 11 12 11 9 8 9 9 9 10 10 10 10 10 11 11 11 11 11 12 12 12 12 12 12 12 13 14 13 13 15 16 16 16 16 16 17 17 17 16 17 16 17 17 18 18 17
9 10 9 9 9 9 7 7 7 7 7 6 7 8 8 7 8 8 8 8 8 8 9 9 8 8 8 8 8 8 8 8 9 9 10 10 11 11 12 11 11 11 12 13 12 9 8 8 9 9 9 10 10 10 10 10 11 11 11 11 12 12 12 13 12 12 13 13 13 14 14 14 16 16 16 17 17 17 17 16 16 16 17 17 17 17 17 17
8 9 8 8 9 8 7 6 6 6 6 6 7 8 7 7 7 8 8 8 8 8 8 8 8 8 7 7 7 7 8 8 9 9 9 10 10 11 11 11 11 12 12 12 11 9 8 9 10 9 9 10 10 10 9 9 10 11 11 12 12 12 12 12 12 12 13 13 13 14 15 14 15 16 17 17 17 17 17 15 15 16 17 17 17 16 16 17
8 8 6 6 7 8 7 7 6 6 6 6 7 7 7 7 7 7 7 8 8 8 8 8 8 8 7 7 6 7 7 8 8 9 9 10 10 10 10 11 12 12 11 10 10 9 8 9 10 10 9 10 10 9 9 9 9 10 11 11 11 11 11 11 12 13 13 13 13 15 15 14 15 16 17 17 17 17 16 15 15 16 17 17 17 16 16 17
7 6 5 6 6 6 6 6 6 6 6 7 7 7 6 6 6 6 7 6 7 8 8 8 8 8 7 7 7 6 7 7 8 8 9 9 9 9 9 10 12 12 11 9 9 8 8 9 10 9 9 10 10 10 9 9 9 10 10 11 11 11 11 11 12 13 13 13 13 14 14 14 15 16 17 17 16 16 16 15 15 16 17 18 18 17 17 18
6 6 6 5 6 6 5 6 6 6 7 7 7 7 6 6 6 6 6 6 6 7 7 7 7 7 7 7 7 6 7 8 7 8 8 8 8 8 9 9 11 11 11 10 9 9 9 9 10 9 10 11 11 11 10 9 9 10 10 11 11 11 11 11 11 12 12 12 13 13 13 14 15 16 16 16 16 16 15 15 16 16 17 17 17 17 18 18
5 5 5 5 6 6 6 6 6 6 7 7 6 6 6 5 6 6 6 6 6 6 7 7 7 7 6 6 7 7 8 8 8 8 8 8 8 8 9 9 10 10 9 10 10 9 9 9 9 9 10 11 11 11 10 10 9 9 10 11 11 11 11 12 12 12 12 12 12 13 13 14 16 16 15 15 16 15 15 15 16 16 16 16 16 17 18 18
4 5 5 5 6 6 6 6 6 6 7 7 6 6 5 5 6 5 6 7 7 7 7 7 7 6 6 6 7 8 9 8 8 8 9 9 9 9 9 9 9 9 9 9 10 10 9 9 9 9 10 11 12 11 11 11 11 11 11 11 11 11 11 11 12 12 13 13 13 13 14 15 16 15 14 15 15 14 14 15 15 15 15 15 15 16 17 18
Height
844 843 842 840 839 837 836 834 833 831 830 828 827 825 824 822 821 819 818 817 815 814 812 811 809 807 805 803 801 798 795 792 790 789 789 789 788 788 788 788 788 787 786 786 784 783 783 783 782 782 781 782 783 782 781 781 781 783 786 789 785 781 778 773 773 774 772 772 772 770 770 771 772 769 765 765 767 767 767 767 766 765 766 769 770 771 772 775
844 843 841 840 839 837 835 834 832 831 829 828 826 825 823 822 820 819 817 816 814 813 811 810 808 806 804 802 800 798 795 793 791 790 790 790 788 787 788 788 787 787 786 785 784 783 783 783 783 783 781 782 783 782 782 781 780 780 783 786 779 773 771 769 769 770 771 771 768 767 767 768 767 767 765 769 771 767 768 769 768 769 769 770 770 772 774 775
844 842 841 840 838 836 834 833 831 830 828 827 825 824 823 821 820 818 817 815 814 812 811 809 808 806 804 801 799 797 795 793 791 790 791 790 789 788 788 788 787 787 786 786 785 784 784 783 783 783 782 782 783 783 782 781 780 779 781 782 775 772 772 773 773 772 774 772 769 768 767 767 765 764 766 769 769 767 767 768 770 772 770 770 771 772 774 776
843 842 840 839 837 835 834 832 831 829 827 826 825 823 822 821 819 817 816 814 813 812 810 809 807 805 803 801 799 797 795 793 790 791 791 790 790 789 788 788 788 787 786 786 785 785 784 784 783 783 783 783 784 784 783 781 781 780 781 779 777 776 774 776 776 775 775 773 773 772 770 770 768 766 765 766 769 768 764 763 766 768 765 767 770 771 773 775
843 841 840 838 836 835 833 832 830 828 827 825 824 822 821 820 818 816 815 814 812 811 810 808 806 804 802 800 798 796 795 792 790 791 791 791 790 789 789 788 788 787 786 786 785 784 783 784 783 783 783 784 785 784 783 783 782 782 780 780 781 779 776 776 777 777 776 774 774 773 773 773 770 767 764 765 768 764 759 757 759 759 759 761 764 767 770 773
843 841 839 838 836 834 832 831 829 827 826 824 823 822 820 818 817 815 814 813 812 810 809 807 806 804 801 799 797 796 794 790 790 791 790 791 790 790 789 788 788 787 787 786 785 784 784 784 783 785 785 785 787 785 785 785 784 783 781 782 783 782 780 777 777 779 777 776 776 775 774 773 773 769 765 764 763 757 753 753 754 753 753 755 758 762 767 770
842 840 839 837 835 833 832 830 828 826 825 823 822 820 819 817 815 814 813 812 811 809 808 807 805 803 801 799 797 796 795 792 791 792 790 790 790 790 789 788 788 787 787 786 785 785 785 785 784 787 787 786 789 787 786 786 784 784 784 785 784 783 782 778 778 779 777 777 776 775 774 774 775 771 767 763 758 755 753 752 752 752 752 755 757 760 762 765
842 840 838 836 834 833 831 830 828 826 824 823 821 820 818 816 814 812 811 810 809 807 806 805 805 804 801 799 798 796 795 793 792 791 791 791 790 790 789 788 788 787 787 786 786 786 786 787 787 789 788 787 790 788 788 786 784 786 787 787 786 784 782 779 779 777 776 776 775 775 774 774 773 772 768 761 756 756 755 753 753 753 754 757 758 758 759 761
841 840 838 835 834 832 830 829 827 825 823 822 820 818 816 814 812 810 809 807 806 805 805 804 804 803 802 801 800 796 793 793 792 792 791 791 790 790 789 789 788 788 787 787 787 786 786 788 788 788 788 789 790 788 788 786 786 789 789 788 787 785 783 781 780 778 776 775 775 776 774 772 770 770 766 757 756 756 755 756 755 755 756 758 759 759 757 758
841 839 837 835 833 831 829 827 825 823 822 820 818 816 815 813 811 809 807 805 804 803 803 803 803 803 802 802 800 795 793 793 792 792 791 791 790 790 790 789 789 788 788 788 787 787 787 788 788 787 787 789 789 789 789 787 787 789 789 787 787 786 784 782 781 779 778 775 774 776 775 770 768 771 765 754 755 755 755 758 757 757 756 756 758 759 759 758
840 838 836 834 832 830 828 826 824 822 820 818 816 815 813 811 809 807 805 804 802 802 802 802 802 803 802 803 801 795 793 793 792 792 791 790 790 790 789 789 789 789 788 788 788 788 788 788 788 788 788 788 788 788 789 788 787 788 787 786 785 785 783 782 781 779 778 776 773 774 774 769 767 767 760 754 755 756 757 759 759 758 756 755 756 757 758 758
839 837 835 833 831 829 827 825 823 821 819 817 815 813 812 810 808 806 804 803 801 801 801 801 802 802 802 803 801 796 793 793 793 792 791 790 789 788 788 787 788 788 788 788 788 788 788 788 788 788 787 787 787 788 788 787 787 786 786 786 784 784 782 780 778 776 776 776 771 773 777 771 763 756 752 754 756 757 759 759 759 760 757 756 755 756 756 756
839 837 835 833 830 828 826 824 822 820 817 815 814 812 811 809 807 805 803 803 802 801 801 801 801 802 802 799 797 794 793 793 792 791 790 789 788 787 786 786 786 787 788 788 787 788 788 788 788 788 788 788 788 786 786 786 786 785 785 785 784 783 781 779 778 776 776 774 769 774 779 767 754 749 750 754 756 759 759 758 759 760 759 757 755 755 755 755
838 836 834 832 829 828 825 823 821 818 816 814 813 812 809 808 807 805 804 803 802 802 801 801 801 802 801 796 794 793 793 792 792 791 790 788 787 787 786 786 786 786 787 787 787 788 787 788 788 788 788 787 787 785 785 787 786 785 784 784 785 783 780 779 778 777 776 773 767 774 777 762 751 750 753 755 756 759 759 757 759 760 759 758 756 755 754 754
838 836 834 831 829 827 824 822 820 817 815 814 812 811 808 807 806 805 804 803 803 802 801 802 802 802 800 794 793 793 792 792 791 790 789 788 787 786 786 785 786 785 786 786 786 787 787 787 788 787 787 787 787 787 787 787 786 787 784 782 785 784 781 779 777 776 776 771 768 774 774 761 755 754 755 756 756 757 758 757 758 759 759 758 756 755 753 752
838 835 833 831 829 826 823 821 818 816 815 813 812 810 807 806 806 805 804 803 803 802 802 802 802 803 799 794 793 792 792 792 790 789 788 787 787 786 785 785 785 785 785 785 785 786 787 787 787 787 787 787 788 788 788 786 786 789 786 784 786 784 782 781 777 776 776 773 770 772 769 762 759 757 755 757 757 757 758 757 757 758 758 757 756 754 753 751
837 835 833 831 828 825 823 820 818 816 814 812 810 808 806 805 805 804 804 803 803 802 803 803 803 803 797 792 793 793 793 792 790 789 787 786 786 785 785 785 785 785 784 784 784 785 786 787 788 787 788 789 789 790 790 786 784 787 788 787 790 788 785 784 780 776 776 776 774 771 768 766 762 759 758 758 758 759 757 757 757 757 757 755 754 753 752 750
837 835 833 830 827 825 822 820 818 816 814 812 809 807 806 805 805 805 804 803 803 802 802 802 802 801 796 792 794 795 794 792 790 789 787 786 786 785 786 786 786 785 785 785 785 785 786 787 788 788 789 791 790 790 790 787 784 788 790 789 791 791 789 788 785 779 777 778 777 774 770 767 764 761 761 759 759 759 756 755 756 755 755 754 753 752 750 749
837 835 832 830 827 825 822 820 818 816 815 812 809 807 805 805 804 804 804 803 803 802 802 803 802 802 800 796 796 796 794 792 790 789 788 787 787 786 787 787 786 786 787 787 786 786 787 787 789 789 789 789 788 787 787 787 789 791 792 793 793 792 788 787 786 782 781 782 778 774 770 768 766 763 763 761 759 759 756 755 755 754 754 753 752 751 749 748
837 834 832 830 827 825 823 821 819 817 815 812 809 806 807 810 807 805 806 805 806 806 805 806 806 805 802 798 797 796 794 792 790 790 789 788 787 787 787 787 787 787 789 789 788 788 789 788 788 786 785 786 787 787 787 788 791 792 793 793 793 792 787 785 786 782 781 783 776 770 769 768 766 764 763 762 759 758 756 755 754 752 752 752 751 749 747 746
836 834 832 830 827 825 823 822 820 819 817 815 810 809 815 820 816 815 815 809 806 808 807 806 807 805 801 799 798 797 796 793 790 790 790 788 787 787 788 788 789 789 791 792 790 790 791 789 786 785 786 786 788 789 790 790 791 791 792 791 790 790 786 783 785 781 779 782 775 769 769 766 764 763 762 761 759 755 753 754 752 751 751 750 749 748 745 743
836 834 831 829 827 825 823 822 821 820 819 817 814 815 820 823 822 822 823 816 809 807 807 806 806 804 800 799 798 797 798 795 791 790 790 789 788 788 789 790 791 791 792 793 791 790 790 787 785 785 787 789 790 790 791 791 790 790 790 791 790 785 783 782 782 779 778 780 775 770 770 764 760 761 760 759 757 751 748 750 750 749 750 748 747 746 744 742
835 833 831 829 827 825 824 823 822 821 820 819 819 820 822 823 822 822 823 823 815 806 805 805 804 803 800 798 798 797 797 797 795 791 789 789 788 790 790 790 791 792 792 791 790 791 789 786 784 785 787 789 790 791 792 791 790 789 788 789 786 781 785 784 780 779 778 777 774 772 769 761 757 759 757 755 752 747 745 745 745 745 745 744 743 743 742 741
834 832 830 828 826 824 823 823 822 822 821 821 821 822 823 822 822 822 823 824 819 808 803 803 803 802 800 798 798 798 797 798 797 792 790 790 789 790 790 790 791 791 790 790 791 791 787 785 785 787 787 788 788 789 790 790 788 786 786 786 782 781 786 785 780 780 777 775 772 773 773 761 754 756 753 748 746 744 742 740 739 739 739 739 740 740 739 738
833 831 829 826 825 824 823 823 823 822 822 822 823 823 823 822 822 822 822 821 816 807 801 802 803 801 799 798 798 797 797 796 795 792 791 791 790 790 789 789 789 788 789 790 791 789 783 782 784 786 787 787 787 786 786 787 785 783 782 781 780 781 784 783 782 782 782 777 769 772 777 761 748 753 750 743 743 743 741 738 736 733 733 734 736 736 735 734
832 830 828 826 824 823 822 823 823 823 823 822 823 823 822 822 821 822 822 818 811 805 802 802 802 800 798 799 797 795 797 795 793 793 792 791 791 790 790 789 788 789 790 789 788 785 782 782 782 783 783 783 785 783 782 784 784 781 778 777 779 781 781 781 780 782 783 777 768 770 777 765 750 750 748 744 745 741 739 738 733 730 729 729 730 731 731 731
831 828 827 825 823 823 822 823 823 823 823 823 823 823 822 821 821 821 819 814 810 808 806 803 801 801 799 800 797 796 798 796 792 793 793 792 791 790 791 790 789 789 788 790 787 782 781 783 782 781 780 780 781 779 779 782 783 779 774 775 777 777 779 778 778 780 776 773 771 769 773 772 759 749 746 747 746 741 738 736 730 727 727 726 726 727 727 727
829 827 826 824 823 823 822 823 823 823 823 823 823 822 822 820 821 821 816 813 813 809 806 804 801 800 800 799 798 798 800 798 795 794 793 793 792 791 792 791 791 790 790 793 788 779 779 782 780 781 781 779 776 776 777 780 780 775 772 773 774 774 776 775 775 776 772 774 775 766 767 773 761 747 745 746 746 742 736 731 727 724 722 723 724 725 725 724
828 826 824 822 822 822 823 823 822 823 823 822 822 821 821 820 820 820 814 813 814 808 805 804 800 801 802 799 799 801 801 799 799 796 792 794 793 793 794 792 793 794 792 793 788 777 776 778 779 782 782 778 774 775 776 777 776 772 772 772 772 774 773 773 774 773 773 779 777 763 764 770 757 744 744 745 744 740 732 727 724 722 719 718 720 721 722 721
827 825 822 821 821 822 822 822 822 823 822 821 822 819 820 821 818 815 813 815 816 810 806 804 803 806 806 803 802 802 802 801 801 798 794 794 794 793 795 794 796 796 794 795 789 781 778 777 779 781 777 773 773 773 773 774 772 771 772 771 771 771 769 771 771 769 776 781 771 758 759 766 760 746 741 742 739 734 731 726 722 720 718 715 714 716 718 717
826 824 822 821 821 822 822 821 821 822 821 821 820 819 820 819 816 814 815 818 817 812 808 807 808 808 809 813 810 802 802 803 802 801 797 794 795 795 793 792 794 794 792 790 785 782 780 777 776 775 771 770 773 773 771 771 772 772 772 770 772 770 767 770 769 773 783 776 760 753 754 763 762 747 736 735 731 727 727 725 720 718 716 713 711 711 712 713
825 824 823 821 822 822 822 822 821 820 820 820 819 819 818 814 816 822 821 819 817 814 813 813 813 811 813 818 814 808 807 805 804 803 801 799 798 796 793 793 794 790 786 786 785 781 774 770 773 772 768 769 772 773 771 770 771 772 770 773 778 774 773 779 772 770 775 763 750 750 752 756 753 740 733 730 725 722 720 718 715 714 713 710 709 708 709 709
825 823 823 822 822 822 822 822 821 820 819 818 819 818 814 811 819 828 827 823 821 819 817 817 815 816 817 813 810 811 810 806 805 803 803 805 801 795 795 799 799 792 789 793 793 784 771 767 773 773 767 766 769 770 770 768 768 769 768 772 777 775 784 791 776 767 767 756 748 749 751 754 746 732 726 723 720 717 714 713 711 710 709 707 705 704 704 704
825 824 823 823 822 822 822 821 820 819 818 818 817 814 812 816 823 827 828 826 823 820 820 820 819 818 816 813 813 814 809 806 808 804 802 804 800 794 793 798 801 797 795 797 795 791 782 770 767 767 765 764 765 764 763 762 764 765 763 767 771 767 774 780 769 765 765 755 748 750 753 751 738 725 719 716 714 712 710 708 705 704 703 701 700 699 699 699
825 824 824 823 823 822 821 821 819 818 817 816 814 814 817 823 829 831 830 827 824 822 821 821 823 819 814 814 817 817 812 809 807 805 803 802 798 794 791 793 800 799 796 796 794 793 788 773 763 764 765 765 763 759 759 764 766 762 760 767 768 759 761 766 762 761 763 760 753 749 746 737 725 718 715 713 712 709 709 705 701 700 698 696 697 695 695 696
825 824 824 823 823 822 821 820 818 817 817 813 812 820 826 826 829 832 829 825 825 827 825 820 820 819 814 813 813 814 815 813 810 807 803 799 795 793 793 792 795 795 791 794 795 791 785 771 763 766 766 763 761 759 759 764 764 761 763 765 759 753 760 768 767 765 769 770 757 745 740 732 725 720 711 709 710 706 704 702 698 696 694 694 694 693 693 692
824 824 824 824 823 821 821 819 817 817 816 812 814 825 832 827 826 827 826 825 827 830 831 826 820 820 820 817 813 811 812 812 812 809 804 798 791 789 791 789 791 791 789 793 796 793 791 776 760 762 762 758 760 762 760 759 758 761 763 758 753 757 763 765 766 768 770 768 753 742 740 736 732 725 710 707 710 707 704 703 699 694 692 693 693 692 691 689
824 824 824 824 823 822 820 818 817 816 814 815 822 830 834 830 826 827 825 826 828 829 832 830 824 823 824 822 815 811 811 810 809 810 808 802 792 786 787 785 787 789 787 791 794 794 798 784 759 755 759 758 761 764 761 757 756 758 758 754 757 764 765 762 765 765 765 764 754 742 738 734 729 721 711 710 711 709 707 706 703 698 694 693 691 689 688 686
824 823 823 825 823 821 820 817 817 815 813 820 830 833 835 832 827 827 826 826 829 830 830 830 827 826 826 824 818 813 813 811 808 809 809 803 792 785 784 782 784 787 786 789 792 792 798 791 768 757 760 761 762 765 765 759 754 757 759 756 756 759 758 757 757 755 755 760 755 746 739 728 718 712 711 714 711 708 710 708 706 704 697 692 690 688 686 684
825 824 824 825 823 821 821 817 816 817 819 829 837 835 836 834 827 825 825 826 827 827 827 829 830 829 825 822 820 816 815 812 809 809 807 801 794 784 780 781 783 786 787 786 789 790 794 794 779 763 762 764 763 763 763 758 754 756 760 761 758 755 754 753 752 747 748 753 755 755 746 723 708 708 710 712 711 710 713 713 708 704 698 692 691 688 685 682
826 825 825 825 823 822 820 819 825 831 832 836 839 837 836 833 827 826 826 826 825 824 826 828 829 828 825 822 819 817 816 812 808 808 803 799 796 785 779 781 782 784 786 786 788 791 791 791 783 769 765 765 759 755 756 756 754 751 751 754 753 751 753 757 756 749 746 748 747 752 748 719 701 706 709 709 711 711 714 715 709 703 699 694 690 686 682 679
828 827 827 825 824 822 819 825 838 844 838 835 837 838 836 832 830 828 826 826 826 825 827 827 827 827 826 823 820 820 819 813 807 806 801 795 793 786 780 781 783 782 783 783 783 784 784 786 784 771 762 758 755 753 753 753 752 749 746 746 745 747 750 753 754 748 745 745 739 746 749 719 695 700 706 707 711 712 713 712 706 699 695 692 688 683 679 676
833 831 828 825 825 822 820 827 838 841 838 837 837 837 836 834 833 830 828 827 827 828 828 826 826 826 824 823 823 822 822 814 804 801 798 793 788 783 778 780 782 780 781 782 780 780 782 785 782 767 754 753 757 759 754 750 751 750 747 745 745 745 744 743 744 742 742 741 737 745 748 718 692 695 700 702 708 711 709 705 699 694 690 686 684 680 676 674
839 837 832 828 825 821 825 833 837 838 840 841 839 836 836 835 833 831 831 829 827 828 828 826 826 825 824 826 826 823 822 818 806 796 796 794 786 780 778 779 780 778 777 777 776 778 780 780 779 770 757 754 757 759 755 750 751 750 747 746 746 744 744 744 743 743 744 737 733 741 737 710 691 694 699 701 703 703 701 697 692 690 687 684 682 679 675 672
838 836 834 833 827 825 833 841 842 843 844 845 842 839 838 836 833 832 833 830 828 828 828 827 827 826 826 827 825 822 820 819 811 799 795 793 784 778 778 779 778 777 773 768 770 778 780 776 775 771 763 757 754 755 755 751 749 749 747 747 745 743 745 744 742 745 742 733 729 732 724 703 690 693 698 699 698 695 693 692 690 689 688 685 682 679 675 671
837 835 835 835 832 833 840 844 845 846 848 847 844 840 841 840 835 833 832 830 829 829 828 827 827 828 828 826 825 822 818 816 813 804 797 794 786 779 778 777 775 771 767 763 766 776 780 774 769 768 764 758 752 751 755 754 749 746 743 743 742 740 739 740 741 739 731 728 727 720 712 704 694 692 693 692 693 692 690 691 691 689 688 686 682 678 673 670
840 841 844 843 838 838 842 845 847 848 849 849 846 843 844 844 839 835 832 830 830 830 828 827 827 829 831 831 829 824 817 813 811 805 798 793 786 780 777 775 772 766 764 764 765 774 778 769 761 762 761 755 750 751 753 755 751 744 740 740 740 739 740 740 738 730 724 730 724 705 703 708 697 687 688 687 689 691 691 692 691 686 684 683 681 679 675 668
842 846 851 850 846 844 844 845 848 849 849 849 847 845 846 845 843 841 836 832 831 829 827 827 827 829 831 833 832 828 820 813 808 801 795 791 788 785 778 771 767 765 767 769 770 774 778 766 754 757 756 750 750 751 750 751 749 744 741 740 739 740 742 739 733 726 725 729 717 699 701 706 693 685 686 685 687 690 690 691 688 681 677 675 675 677 673 664
846 849 851 850 850 850 849 848 849 849 847 845 845 846 847 846 845 844 842 839 836 831 829 829 828 829 830 830 831 829 823 817 811 801 795 794 793 793 786 774 766 764 767 773 773 775 776 766 755 756 753 746 744 744 745 748 747 743 742 740 738 738 738 736 732 727 725 723 712 705 707 703 691 686 687 685 686 687 686 685 682 677 672 668 667 668 664 658
850 851 851 851 851 851 851 850 849 848 846 845 844 845 848 848 845 844 843 843 840 834 831 832 829 828 829 827 828 826 819 816 815 806 799 798 795 793 791 782 771 767 767 771 772 773 773 764 756 757 751 739 737 738 739 743 745 744 743 739 737 737 734 733 731 729 728 723 715 714 714 702 688 685 687 686 684 684 683 682 678 673 669 666 663 661 658 654
853 852 853 853 851 850 850 849 850 849 846 846 847 846 848 849 846 845 841 838 838 835 832 832 830 828 829 828 825 820 812 810 810 802 798 800 795 791 790 784 777 776 776 772 770 772 774 765 757 757 750 737 735 737 736 738 743 745 742 738 737 735 732 728 725 724 724 721 716 715 711 698 686 686 687 684 682 683 682 678 675 670 668 667 664 660 655 652
854 853 853 854 852 851 851 849 850 849 845 845 848 849 849 848 846 847 843 835 833 834 832 832 833 832 831 826 819 813 808 806 802 793 790 793 789 785 785 781 779 782 782 776 771 769 770 766 759 757 751 736 731 736 736 734 735 736 737 737 737 734 731 727 721 717 716 715 714 710 700 691 688 690 688 683 681 682 680 676 674 671 668 666 663 658 653 649
Wind_Speed
18 19 18 18 18 18 18 19 19 20 20 20 20 20 20 20 20 20 20 20 19 19 19 20 20 21 21 21 22 24 26 26 22 16 8 7 8 2 2 1 1 5 6 6 7 4 4 4 5 7 1 4 1 1 2 2 3 3 5 8 9 10 9 9 11 9 6 9 11 10 11 15 12 7 3 2 8 9 9 7 4 4 5 5 6 12 20 24
19 19 19 18 19 18 18 18 19 19 19 20 20 20 20 20 20 20 20 20 19 19 19 19 20 20 21 21 21 23 25 23 15 8 7 8 6 4 3 2 4 6 7 7 8 5 3 3 5 6 1 3 1 1 2 2 3 6 4 7 10 8 5 3 6 6 2 7 11 12 12 14 14 8 3 6 9 8 10 6 5 5 5 7 10 15 19 22
19 19 19 19 19 19 19 19 20 19 20 20 20 19 20 20 20 19 19 19 19 20 19 19 20 19 20 21 21 22 22 16 5 4 8 7 5 5 3 4 6 7 9 7 7 5 2 1 2 2 1 2 0 1 3 3 3 5 3 8 7 1 2 4 2 2 4 3 4 8 8 9 9 4 3 8 11 10 12 6 5 7 5 7 11 14 18 21
19 19 19 19 19 19 20 20 20 20 20 20 20 19 19 19 19 18 19 18 18 19 19 19 19 19 20 20 21 20 14 6 1 3 7 6 3 4 4 6 8 8 9 6 5 5 2 0 0 1 0 1 0 0 3 2 1 2 4 6 0 4 1 4 6 5 5 5 2 2 3 4 3 3 6 10 13 13 11 8 7 9 9 10 12 14 18 20
20 20 20 20 20 20 20 20 20 20 20 20 20 19 19 19 19 19 19 18 19 18 18 18 18 19 19 19 20 15 7 1 2 3 6 5 3 4 5 6 8 9 9 6 5 5 3 2 1 2 1 1 1 2 2 0 1 2 3 1 5 3 2 2 5 4 4 4 4 4 2 3 5 5 7 9 14 11 6 8 10 10 10 12 15 16 17 18
20 20 20 20 21 21 20 20 21 21 20 20 20 20 20 19 19 19 19 19 19 18 17 17 17 18 18 19 16 8 3 1 2 5 6 5 4 4 4 5 8 7 8 9 8 6 4 3 1 1 1 1 2 2 0 2 2 3 2 4 5 3 3 5 4 3 3 4 4 4 3 4 5 6 4 7 13 7 3 4 10 12 10 12 14 16 17 19
20 20 20 20 21 21 21 21 21 21 21 21 21 20 20 20 20 20 20 19 18 18 17 15 16 16 18 18 10 2 1 2 4 5 5 4 4 3 2 4 6 6 7 11 10 6 4 4 3 2 0 1 1 1 1 3 2 3 1 4 6 5 4 7 6 3 2 3 3 3 4 4 4 6 4 8 11 6 7 6 6 7 5 9 12 15 17 19
21 21 20 20 21 21 21 21 21 21 21 21 21 20 20 20 22 22 21 20 18 17 15 14 13 14 16 15 6 1 1 2 3 5 6 5 4 3 3 4 6 7 8 9 9 5 3 3 3 1 1 1 1 0 2 2 1 1 1 4 6 6 6 8 8 7 5 3 2 3 6 4 5 6 8 14 12 7 10 8 9 6 4 8 9 14 16 17
21 21 21 21 21 21 21 21 22 21 21 22 20 19 21 21 23 23 21 19 17 15 14 12 10 12 13 9 3 1 2 3 4 7 10 8 5 5 5 5 7 8 7 6 7 6 3 2 2 1 1 1 1 1 2 2 1 2 2 4 5 6 7 7 7 7 8 4 1 5 9 7 6 6 10 14 10 8 10 7 8 6 5 9 8 10 12 14
21 21 22 21 21 21 22 22 23 23 23 22 21 21 22 23 24 23 20 18 16 14 11 8 7 9 8 5 2 0 3 5 6 9 13 12 9 8 7 8 9 8 6 5 5 5 4 1 1 1 1 1 0 1 0 1 0 1 3 4 4 5 4 4 5 6 8 7 5 8 10 11 5 5 9 2 3 3 5 3 3 6 7 9 10 9 8 9
22 22 23 22 22 22 22 23 23 23 23 22 21 22 23 24 23 20 18 18 16 12 8 4 5 6 5 4 1 1 4 7 7 9 12 12 12 11 10 11 11 8 6 5 4 4 3 2 1 1 1 0 1 1 1 1 2 2 3 5 3 2 4 4 6 7 6 5 5 5 9 12 7 10 10 4 5 4 4 3 0 5 8 8 11 10 9 8
23 23 23 23 23 23 23 24 23 23 23 22 21 21 22 23 21 19 17 15 12 7 2 1 3 4 2 1 1 2 7 7 6 8 10 11 12 11 9 9 10 9 6 4 5 5 4 2 1 2 1 1 2 1 1 0 3 2 2 6 3 1 3 4 7 8 7 5 3 1 8 12 14 19 8 7 1 4 4 5 1 4 7 7 9 8 9 8
23 24 24 24 24 23 24 24 24 24 22 21 20 19 22 21 17 15 12 12 11 6 3 2 1 1 1 0 2 4 6 3 4 8 9 11 13 11 10 6 7 10 7 7 8 7 6 4 2 2 1 1 2 2 1 1 3 3 2 3 4 3 2 1 2 5 6 6 5 5 8 11 17 20 3 8 1 2 7 10 3 4 5 7 8 7 9 8
24 24 24 25 24 24 24 24 24 23 22 20 18 19 21 18 13 9 9 13 12 5 3 1 0 0 1 1 2 5 5 1 4 10 11 14 15 11 11 10 6 7 9 10 10 7 6 4 3 1 1 2 2 3 3 1 1 3 2 2 3 4 1 2 3 2 5 5 6 9 9 10 13 10 4 4 2 2 8 10 3 3 5 6 8 8 9 8
24 24 25 25 25 25 24 24 24 22 21 19 17 18 18 14 9 6 8 13 11 4 2 1 1 0 1 1 2 6 5 3 8 13 12 14 14 9 9 10 7 5 8 10 9 4 2 3 3 1 1 1 2 3 3 2 1 1 3 3 1 2 2 2 3 1 3 4 6 10 9 7 7 4 3 2 7 6 10 10 5 4 5 7 7 9 10 9
24 25 25 25 25 25 24 24 23 21 20 18 18 18 15 10 6 4 8 13 9 3 1 1 1 0 1 1 3 5 4 6 13 15 14 15 12 9 9 8 4 3 4 6 5 2 2 3 1 1 0 1 1 2 3 3 1 1 2 3 1 3 2 2 1 1 2 3 5 10 9 5 2 5 5 3 6 8 10 10 8 6 6 8 7 8 9 10
24 24 24 24 24 24 24 23 21 20 20 19 20 16 11 7 3 2 8 12 7 2 1 0 1 1 0 2 2 4 5 10 17 18 16 13 9 8 6 3 1 1 1 1 1 3 3 2 0 0 1 0 0 1 3 5 3 1 1 2 1 4 4 1 1 1 5 5 5 9 11 9 7 9 11 8 6 8 10 9 8 6 7 8 8 9 10 11
24 24 24 24 24 24 23 21 19 19 19 21 21 14 8 4 1 2 8 12 5 2 0 1 1 1 0 2 3 6 11 16 19 17 13 9 7 5 3 2 0 1 2 1 1 2 2 1 0 2 0 0 2 2 4 3 1 1 1 1 1 2 4 3 2 2 7 9 8 10 12 11 11 10 10 10 9 10 12 9 6 6 7 8 8 10 10 11
24 24 24 24 23 23 21 18 17 18 18 22 17 6 6 5 1 2 7 10 4 1 2 2 2 1 3 6 6 9 15 16 14 10 10 9 7 4 1 1 1 1 1 1 0 1 0 1 1 2 2 4 5 5 6 2 3 1 1 2 3 4 6 5 5 5 7 10 11 13 14 11 12 11 9 10 10 12 14 11 8 6 7 8 8 9 10 12
24 24 24 24 23 22 18 15 16 16 18 23 16 4 5 6 2 2 6 6 1 1 2 1 1 1 4 6 6 12 14 9 5 6 11 10 5 3 1 1 2 1 0 2 1 2 1 3 4 4 5 5 5 6 7 4 1 3 4 5 6 7 8 5 5 7 5 8 11 13 14 13 14 13 10 11 13 15 16 14 13 9 6 7 8 10 12 13
24 24 24 23 23 21 15 13 14 14 17 21 18 8 3 4 3 2 6 5 2 2 3 3 3 5 8 8 9 10 7 3 2 5 11 11 4 3 3 2 2 1 1 2 2 0 2 5 4 5 6 6 5 5 6 6 6 6 6 7 7 7 8 6 6 8 6 7 10 12 14 16 15 13 11 12 15 17 17 15 15 13 9 7 8 11 12 12
24 23 24 23 22 20 12 11 13 11 15 20 18 10 4 4 3 2 2 4 4 2 3 4 3 5 9 10 9 5 2 4 5 5 10 10 4 3 3 2 2 3 1 1 3 3 4 6 5 4 4 5 4 4 5 7 8 7 6 6 7 6 6 6 6 7 6 6 8 11 13 14 13 11 11 11 14 16 15 14 15 15 13 11 9 9 11 12
24 23 24 23 21 18 9 10 12 8 13 18 15 8 4 6 5 2 2 3 5 3 2 2 2 3 5 4 2 2 3 4 5 7 10 9 4 2 2 3 3 3 2 3 4 5 5 3 2 3 5 5 5 4 5 6 6 6 6 6 8 6 4 4 3 4 6 7 9 12 12 13 12 10 10 12 14 16 16 16 15 13 14 14 11 10 10 12
25 24 25 23 20 17 6 7 11 7 9 13 12 9 6 7 5 1 1 1 3 4 2 2 2 2 3 2 1 2 4 2 2 7 9 7 5 0 1 3 3 3 2 4 6 8 9 3 1 3 5 6 7 6 7 6 5 7 8 9 10 7 6 7 6 6 8 9 11 11 10 11 9 8 8 10 13 15 15 16 16 14 14 13 12 12 12 13
26 25 25 22 20 15 4 4 10 7 4 6 8 10 9 8 4 2 1 0 1 3 1 2 2 2 2 2 3 3 3 1 2 5 4 5 5 2 2 1 2 3 3 3 5 8 10 6 5 6 6 7 8 7 8 7 6 7 9 12 13 9 8 10 9 6 6 8 7 5 7 8 4 4 6 6 8 11 12 15 18 16 15 14 12 12 12 13
27 25 24 22 19 14 4 2 7 7 3 3 5 8 10 9 2 3 1 1 0 2 2 1 1 1 1 2 5 3 1 1 1 2 2 5 3 2 3 1 1 3 3 4 4 5 4 3 6 8 9 9 10 10 8 8 7 7 5 8 12 11 10 12 10 6 5 6 1 2 6 7 4 6 7 6 10 12 11 13 17 16 13 13 11 10 11 11
28 26 24 21 17 12 4 1 6 5 2 2 6 8 12 9 1 3 1 1 1 1 2 2 1 2 3 4 7 3 1 4 4 1 3 6 4 1 3 2 1 2 1 3 4 2 0 2 5 7 9 9 9 8 6 9 8 5 5 6 8 10 10 11 10 7 6 6 3 5 8 8 9 8 5 6 13 16 14 15 17 16 13 13 11 10 10 11
29 26 24 19 13 8 3 3 5 2 1 4 6 9 13 7 3 2 0 2 2 1 0 1 2 2 3 5 6 2 2 6 3 1 3 5 4 1 3 3 3 3 0 1 5 1 2 4 5 4 7 7 7 6 6 10 9 5 5 5 6 8 9 9 8 6 6 6 7 8 8 7 9 6 2 4 12 15 15 16 17 17 15 11 9 9 10 11
31 27 23 17 9 3 3 4 3 1 1 5 8 12 11 2 3 1 1 1 2 1 1 1 2 2 4 7 4 2 2 3 1 2 4 3 3 1 3 2 2 4 2 4 8 8 4 4 3 3 6 6 6 5 6 10 9 4 3 5 5 5 7 7 6 6 6 6 8 9 8 7 9 6 3 5 10 13 13 14 14 15 17 15 10 8 9 10
30 25 19 12 5 2 4 4 2 2 4 7 12 12 4 3 2 1 2 1 2 2 1 2 4 4 7 10 5 2 3 2 2 4 3 1 2 1 1 1 1 3 3 4 9 12 9 7 5 6 8 7 6 6 6 11 10 4 2 4 4 4 5 5 5 5 5 6 11 14 11 8 9 7 4 5 8 12 12 12 13 14 16 18 13 8 9 10
27 20 14 8 4 3 3 4 5 6 8 11 11 6 2 2 1 2 2 1 2 3 2 3 5 5 9 9 3 3 5 2 3 5 4 2 2 2 1 0 1 2 3 3 6 7 8 8 4 4 8 8 6 7 6 8 9 5 4 4 4 4 4 4 4 4 6 8 10 12 11 11 10 8 6 7 12 15 14 14 17 17 16 18 14 9 9 10
22 13 10 8 5 4 3 5 9 10 11 12 7 1 2 1 2 1 1 2 2 2 3 3 4 6 9 5 2 5 5 2 2 3 4 4 3 3 2 1 1 3 2 1 3 6 6 5 2 3 5 6 7 7 6 6 6 6 5 3 4 6 4 5 5 5 7 9 7 6 9 11 10 10 12 13 15 18 17 17 19 19 18 17 15 10 8 8
17 8 7 7 6 6 5 7 10 11 12 9 2 1 2 2 2 1 2 2 1 2 2 2 4 7 8 5 3 4 3 2 3 3 3 3 3 3 2 2 1 2 3 2 4 6 4 1 1 2 2 5 7 6 6 6 5 7 7 5 6 7 6 6 7 5 7 7 5 5 7 7 8 10 14 18 18 19 19 19 19 20 19 19 19 16 11 10
11 6 6 6 8 8 7 9 10 11 12 6 1 1 3 2 1 0 1 2 2 3 2 2 7 7 3 2 3 4 2 1 3 6 5 2 2 3 2 2 3 2 1 2 3 3 4 3 2 2 1 4 9 10 10 7 5 7 6 5 7 8 7 7 6 6 7 6 6 6 4 5 6 5 7 13 16 17 18 19 20 20 20 19 19 18 15 13
7 6 8 8 9 9 10 11 11 13 11 4 2 2 2 0 1 0 1 2 2 4 5 4 4 4 1 1 1 1 1 1 4 6 4 2 3 4 2 1 3 3 1 2 2 1 5 6 3 2 0 4 9 9 9 8 7 6 5 5 8 7 6 6 6 5 4 6 7 6 5 5 7 8 9 13 16 15 17 20 21 20 20 18 16 16 14 12
4 5 7 8 9 10 12 13 13 14 9 1 3 3 1 1 1 1 1 2 2 4 7 5 1 2 3 2 1 1 1 2 4 5 2 3 6 3 2 1 4 6 2 2 2 2 5 5 2 2 4 7 9 6 6 8 6 3 5 8 6 3 3 7 6 1 1 7 8 7 8 8 8 11 13 15 15 16 17 20 22 22 19 16 13 13 13 11
5 3 5 8 10 11 13 15 16 14 5 3 3 2 0 1 1 2 1 2 2 1 3 3 2 2 2 3 3 3 3 2 2 4 4 5 4 3 3 2 4 7 4 1 2 1 4 7 5 7 9 6 6 6 7 10 7 3 4 5 2 3 3 6 6 3 5 9 7 6 11 10 8 9 8 9 12 12 11 13 17 19 16 13 11 12 13 11
8 1 3 9 12 11 14 18 17 9 2 3 2 1 0 1 1 2 1 2 2 1 3 0 1 2 2 3 4 4 7 5 3 5 6 4 2 3 2 2 4 6 6 4 3 1 2 7 5 7 7 1 2 4 6 8 11 8 4 1 1 3 6 6 5 5 7 8 7 7 10 10 10 10 9 11 13 11 10 12 15 15 12 10 10 11 11 11
7 1 1 9 13 12 16 18 11 3 4 3 1 1 0 2 2 2 2 1 1 1 1 2 1 1 1 3 5 5 6 6 7 8 4 1 1 2 3 2 3 5 5 6 4 2 3 5 4 4 4 1 1 3 3 5 9 8 5 4 3 3 5 6 4 4 6 7 7 8 9 9 9 9 8 11 11 9 9 11 13 15 14 10 9 10 10 10
5 0 0 10 15 14 16 12 6 3 3 2 0 0 0 2 4 2 2 2 2 1 1 2 1 1 2 3 5 4 4 6 9 8 3 2 3 4 4 3 3 3 5 8 6 2 3 5 5 2 3 1 3 3 3 5 6 7 7 7 6 4 3 5 4 3 5 7 7 7 8 10 6 4 4 6 8 8 9 11 13 13 14 14 13 13 12 10
3 0 1 12 17 15 13 7 5 3 1 1 0 1 1 2 4 3 1 1 1 1 1 2 2 2 2 3 4 4 5 8 7 6 5 4 4 4 1 3 2 1 3 6 6 3 3 4 6 6 3 4 6 4 5 6 6 7 8 8 8 7 5 5 5 4 4 6 8 7 9 12 5 4 2 5 7 8 9 12 15 12 14 16 15 15 13 11
2 1 4 13 18 15 8 4 2 2 1 1 2 2 3 3 3 3 2 2 1 1 1 1 2 3 3 3 3 4 7 7 6 5 5 5 6 5 2 3 3 3 2 4 4 5 4 3 7 10 9 8 8 8 9 10 8 5 6 7 7 7 7 7 6 4 4 7 7 6 9 12 3 6 3 5 5 9 11 14 16 13 13 16 15 15 14 11
1 2 5 14 18 12 4 3 1 1 1 2 2 1 2 2 2 3 3 2 1 1 1 1 1 2 2 1 2 6 7 6 7 6 5 6 7 8 7 4 5 5 3 3 3 5 4 2 6 9 8 6 5 6 6 6 7 6 5 6 5 6 7 7 5 3 4 7 7 5 9 11 3 5 5 6 6 9 12 15 17 13 12 14 14 14 13 12
1 2 3 13 17 8 3 2 2 1 2 3 2 2 2 2 3 4 4 3 2 1 1 1 1 1 1 1 3 6 5 4 6 6 6 7 5 4 6 7 7 6 4 3 2 2 3 3 3 6 6 3 2 1 1 1 5 6 5 5 6 8 8 5 3 3 6 9 10 8 9 11 6 3 4 6 8 11 11 13 16 13 11 13 13 12 13 13
1 1 3 8 15 10 3 1 1 0 2 3 3 4 4 2 2 3 5 4 1 1 2 1 1 1 1 2 3 6 6 5 5 5 5 8 7 5 5 6 8 8 10 12 6 3 1 3 3 4 6 4 4 3 1 1 3 4 4 6 9 10 11 8 4 5 9 9 9 9 10 13 12 5 5 8 11 13 11 11 12 11 9 13 14 13 13 12
1 1 2 4 7 6 2 1 2 1 1 2 2 3 4 5 4 3 3 2 1 3 2 1 1 1 2 5 8 7 5 6 8 7 8 10 9 6 5 11 15 14 16 17 8 5 1 5 7 9 8 7 8 6 2 2 4 5 6 8 9 10 13 10 6 8 9 5 7 13 15 16 19 15 12 11 11 12 10 8 11 12 11 12 14 14 14 13
1 1 2 2 2 2 2 2 3 2 0 0 1 2 3 6 6 5 2 1 3 5 2 1 2 3 3 7 9 8 7 7 8 11 12 11 10 10 11 14 16 12 11 8 2 5 2 6 7 11 12 12 13 9 7 8 10 10 10 9 8 8 10 11 11 9 5 3 10 17 15 15 20 20 17 14 9 7 8 9 14 15 13 12 12 14 17 16
2 1 1 1 1 1 1 2 3 3 1 2 1 1 3 5 6 6 3 3 5 5 2 0 1 3 6 8 7 7 10 11 8 8 9 8 9 13 14 11 7 3 5 4 3 3 3 6 6 8 12 13 12 10 10 11 12 12 12 12 10 8 9 12 15 13 7 8 15 17 11 12 18 19 16 13 8 6 8 11 15 17 17 15 12 12 17 17
2 1 1 1 1 1 2 3 4 3 1 1 0 2 3 5 6 6 4 5 6 4 1 2 4 7 9 9 6 6 8 8 8 10 10 10 11 12 12 10 5 1 5 3 1 1 2 4 5 6 11 13 11 10 10 12 13 12 12 13 12 11 12 13 14 15 14 16 20 21 18 18 19 17 15 12 9 6 7 11 15 17 18 17 14 14 16 14
1 1 1 1 1 1 2 2 3 2 1 1 1 2 3 4 7 8 6 5 5 3 1 4 9 11 12 10 8 9 9 8 12 15 14 14 14 9 6 6 5 5 7 5 2 2 3 3 3 4 8 9 6 5 7 9 12 11 10 11 11 11 12 13 14 15 15 17 19 19 19 20 15 9 9 11 9 6 8 12 16 17 16 16 17 17 16 14
1 1 0 1 1 1 1 1 1 1 1 0 1 2 3 4 7 11 9 6 7 5 3 7 12 12 12 11 11 12 12 11 16 20 17 16 15 10 6 7 7 8 10 8 5 2 3 3 4 4 7 6 0 1 3 2 6 7 8 9 10 11 12 12 12 12 13 15 16 15 15 15 9 6 8 12 10 8 10 13 15 14 14 15 16 18 17 15
2 1 1 0 1 1 1 1 1 1 1 0 1 3 4 5 7 10 7 3 4 6 4 7 12 11 11 12 12 13 15 16 20 22 17 15 16 15 13 14 14 10 8 7 6 3 4 5 5 4 5 5 2 4 3 4 4 1 3 3 6 9 11 12 11 11 12 12 11 11 11 10 9 10 12 13 12 9 9 11 13 13 14 15 16 17 18 16
Wind_Direction
353 352 352 351 350 350 348 347 346 345 345 344 343 342 342 340 339 339 337 335 334 334 332 333 333 333 333 332 332 333 332 333 338 346 5 8 345 280 200 314 339 354 351 345 354 11 35 29 8 3 124 162 296 183 180 192 169 183 199 225 228 223 214 188 194 194 192 190 195 202 196 215 222 208 205 172 209 216 205 192 141 112 66 65 111 130 139 144
352 350 350 349 347 346 345 345 344 343 343 343 342 340 340 339 339 337 336 334 333 333 331 332 332 332 331 330 334 334 332 332 334 352 15 15 34 112 134 54 28 19 13 4 13 35 42 4 348 352 97 173 262 155 192 166 192 208 193 225 228 224 204 164 203 188 193 216 200 199 202 216 221 209 196 230 225 217 223 204 133 142 91 89 119 132 142 148
350 349 348 347 344 343 343 342 341 342 341 341 340 340 340 339 338 336 336 335 334 333 332 331 331 331 329 329 335 334 331 329 334 42 22 23 67 85 82 49 39 35 27 16 14 17 7 335 313 338 46 191 172 144 200 169 199 214 217 231 226 234 132 65 35 84 18 316 209 208 214 217 223 210 189 234 239 225 225 209 153 181 174 141 137 144 153 158
349 348 347 345 343 342 342 341 341 340 339 339 340 340 338 337 336 334 334 334 333 332 332 331 330 329 328 331 335 332 329 322 136 51 15 13 39 45 49 43 39 35 28 31 25 12 8 36 127 55 52 205 102 168 202 181 202 200 230 236 300 20 164 85 35 34 20 5 351 302 260 240 291 293 225 226 238 239 229 201 178 194 190 166 155 159 165 169
348 348 347 345 344 343 342 342 340 339 339 339 338 338 337 335 333 331 332 331 331 330 330 329 328 328 327 336 336 328 320 241 125 15 359 359 347 16 29 27 30 29 30 43 36 21 36 32 51 78 78 166 140 197 204 20 342 227 229 347 37 358 279 41 29 18 9 15 357 346 326 298 328 278 242 237 237 240 230 194 191 198 188 170 166 168 171 176
349 347 346 345 343 343 343 341 339 338 338 337 336 336 333 331 329 328 328 329 328 325 326 325 327 326 328 340 336 324 309 258 57 0 337 335 310 347 8 13 22 19 30 45 38 30 40 18 26 80 32 113 168 199 290 8 335 249 229 38 24 4 324 334 6 7 6 10 346 345 336 347 328 281 273 259 245 251 297 218 209 211 191 167 160 165 173 181
349 349 347 345 343 343 342 340 338 338 337 335 335 333 331 331 330 328 324 324 322 319 319 316 323 325 329 344 341 330 353 304 22 3 340 328 292 314 345 10 15 5 23 38 32 27 38 34 58 82 290 107 163 195 343 337 323 252 250 25 3 6 336 331 341 321 356 339 312 327 312 336 312 290 309 270 256 266 296 297 278 258 178 150 151 164 177 184
350 350 347 344 343 343 341 339 337 336 335 333 331 330 329 329 332 331 324 319 317 315 312 308 319 322 329 350 351 332 6 301 13 19 5 339 299 305 320 348 356 1 21 36 31 22 34 46 64 94 234 98 166 328 358 321 5 234 309 7 354 350 334 330 329 320 332 312 278 288 285 282 266 284 282 267 266 267 275 296 311 314 133 161 176 175 180 185
350 348 346 345 344 342 340 338 336 335 334 331 329 328 328 328 331 332 324 317 313 310 308 304 309 313 327 353 337 303 0 333 358 10 358 338 312 313 315 326 335 352 10 18 17 12 21 39 56 46 212 104 199 317 9 283 112 72 340 342 336 330 326 320 316 323 323 313 312 292 282 269 262 284 272 263 267 266 269 282 294 292 170 184 204 196 190 184
348 346 346 345 344 342 340 337 336 335 333 331 332 334 335 334 333 333 326 318 313 307 303 296 291 304 334 1 311 8 22 340 338 344 342 334 321 316 315 318 323 340 351 348 356 9 23 352 309 15 206 147 150 235 72 244 338 24 326 317 313 307 305 302 303 305 302 300 287 279 280 277 268 254 258 289 37 291 282 293 279 262 224 195 202 213 216 201
347 347 346 345 345 343 340 337 336 335 333 334 338 341 340 337 338 339 327 319 317 310 298 277 274 292 340 13 328 52 358 334 343 347 344 344 336 325 312 301 304 322 339 342 333 341 350 301 255 262 222 154 231 228 174 118 342 333 318 304 288 294 275 246 262 267 269 281 269 267 280 277 263 238 235 86 47 1 352 329 13 244 244 215 205 205 214 225
348 347 346 345 344 343 340 338 337 334 334 339 343 345 341 337 341 340 332 334 341 337 319 226 260 277 320 34 206 310 334 331 8 11 359 358 353 347 331 297 280 291 313 319 309 323 324 304 295 271 323 353 276 278 157 261 312 285 295 298 291 306 279 240 244 246 234 235 220 216 275 260 244 244 228 97 36 334 326 286 287 239 248 244 227 210 213 215
348 347 346 345 343 343 340 338 337 334 337 344 347 346 340 338 345 349 358 20 18 20 92 139 239 277 342 8 245 320 343 347 33 14 358 356 355 5 11 346 281 270 280 285 290 317 312 271 269 293 333 303 284 331 306 293 297 265 246 289 296 291 283 51 281 246 229 233 197 194 253 244 236 246 234 86 154 265 276 266 251 234 237 245 243 231 227 209
348 347 345 344 343 342 340 339 337 334 341 348 350 346 338 339 355 10 33 30 17 23 85 98 202 328 342 259 269 344 3 35 357 350 344 344 346 1 15 7 332 270 266 279 287 318 318 256 221 269 234 255 294 315 303 306 292 284 261 227 284 279 185 64 350 225 211 223 199 208 245 249 243 253 73 82 220 190 258 264 244 227 228 236 241 242 238 219
347 347 345 345 344 342 340 339 336 337 346 352 353 346 335 339 4 27 31 16 11 24 53 60 102 33 335 247 313 348 355 335 337 337 330 330 334 343 348 351 347 293 270 279 283 297 311 198 198 257 217 257 300 292 295 312 47 325 261 219 183 242 208 349 339 194 228 243 207 216 243 255 260 298 69 235 260 243 249 259 248 227 228 235 234 241 245 234
347 347 346 346 344 342 341 339 340 345 352 355 352 344 332 338 4 24 16 7 9 38 44 73 100 29 33 34 345 351 355 326 328 328 322 319 312 301 313 329 334 293 273 277 276 246 196 179 198 315 299 260 269 297 307 280 246 100 258 251 175 249 267 351 9 129 319 304 225 226 246 266 308 336 345 310 283 271 263 265 257 237 229 236 235 237 244 243
348 348 347 346 344 343 342 343 349 354 356 356 350 341 332 337 355 12 7 3 9 72 60 129 195 238 113 66 352 345 335 318 324 326 326 326 309 286 287 311 22 327 336 272 183 138 167 187 255 299 68 341 228 306 291 266 256 120 239 245 209 262 272 297 254 4 353 328 269 255 262 273 292 310 316 323 326 297 280 274 263 251 239 237 236 236 239 245
349 348 347 347 346 345 345 350 360 0 359 357 348 341 348 355 356 8 357 356 349 202 221 295 233 224 336 15 343 319 315 313 319 324 331 346 338 311 272 250 266 321 3 37 134 120 187 203 300 240 170 190 191 205 252 268 344 50 233 263 292 261 258 262 252 335 346 323 297 283 273 276 286 293 300 307 317 301 288 288 277 258 249 243 238 239 239 242
348 348 347 347 347 346 349 359 6 6 6 3 354 351 28 25 6 7 357 356 357 196 12 346 0 34 303 325 316 306 312 312 316 328 342 349 344 344 308 287 350 309 342 335 312 62 200 202 195 231 221 221 213 216 240 238 85 56 314 290 293 281 270 266 265 292 320 305 289 279 276 280 284 286 296 303 304 295 291 295 288 265 249 246 240 239 242 245
348 348 347 347 347 347 355 6 10 17 19 12 12 35 42 21 357 351 349 351 26 13 343 308 339 279 287 314 308 315 325 316 315 353 353 351 344 348 0 22 28 63 268 290 299 47 314 253 236 242 246 236 222 221 239 246 234 273 277 271 272 274 274 269 269 279 288 286 276 271 278 281 279 281 288 293 291 285 283 283 283 276 262 253 243 239 240 244
348 347 347 347 347 350 2 12 14 30 34 29 35 52 54 22 11 344 337 322 265 258 273 258 253 262 275 287 297 319 340 305 300 10 5 2 346 331 356 19 354 322 320 307 292 344 266 263 250 244 252 247 233 222 227 242 253 258 264 272 270 262 269 275 274 270 259 262 269 274 281 278 274 278 277 276 276 274 273 274 277 276 271 262 249 246 242 243
348 347 347 345 348 354 7 20 23 41 43 42 51 66 84 26 353 257 306 312 294 280 258 269 271 270 273 273 285 305 316 313 325 4 13 4 352 0 5 346 315 309 347 295 271 267 256 265 267 241 228 229 232 222 219 235 250 253 254 267 268 259 270 276 263 258 248 249 273 283 285 280 279 279 270 265 266 269 271 269 270 272 270 263 253 249 244 245
347 346 346 344 348 356 8 29 31 48 48 47 55 63 58 13 358 220 212 294 297 300 256 260 254 273 288 288 299 306 324 341 331 343 1 2 8 33 319 315 308 285 267 249 268 282 274 288 312 224 187 193 221 212 208 232 244 243 246 255 258 251 253 261 242 261 270 262 275 287 288 284 282 274 262 255 254 261 266 262 257 255 255 253 250 249 245 245
346 345 345 343 348 357 12 46 33 42 52 53 53 40 25 4 4 180 217 275 289 292 249 229 250 255 276 313 319 301 332 351 283 329 356 7 3 291 272 337 311 273 262 254 255 267 271 266 125 203 188 201 231 220 207 231 251 238 234 245 259 256 242 253 264 282 286 268 265 279 287 282 273 266 261 248 240 247 255 257 253 244 241 243 243 245 243 241
346 344 344 343 347 359 34 73 30 30 53 61 42 21 10 357 358 182 224 293 260 294 259 200 220 235 230 312 310 296 319 250 252 314 342 1 347 305 326 353 276 300 338 298 264 269 277 257 217 232 223 217 235 236 218 222 256 251 231 235 251 259 247 248 255 263 279 272 255 250 272 277 256 239 251 252 250 251 252 256 256 249 241 238 235 237 238 235
345 343 343 342 344 360 43 106 15 17 57 65 17 4 358 351 0 167 220 343 192 336 341 282 189 276 314 346 319 287 214 160 327 316 332 355 350 295 312 304 237 309 339 335 292 269 286 239 208 233 242 230 233 243 221 204 249 268 224 216 235 243 244 244 245 236 251 276 239 172 264 282 279 254 243 262 282 276 267 263 262 259 250 242 235 231 235 235
344 342 341 340 342 357 24 22 350 5 73 9 350 353 347 339 236 182 280 22 46 327 324 325 323 351 349 339 330 313 297 329 333 35 21 355 353 278 293 293 254 271 0 345 296 231 168 264 226 234 249 242 239 248 202 190 240 261 147 167 216 225 234 242 243 236 247 275 272 236 255 272 278 270 238 253 277 276 270 265 264 263 257 247 237 232 236 240
344 342 340 337 340 354 8 335 346 33 82 337 338 342 339 330 195 203 266 86 14 316 1 334 308 337 332 329 348 14 305 322 332 68 28 354 359 328 282 278 256 267 122 277 277 241 158 259 256 245 256 251 245 249 189 193 234 243 167 198 236 231 238 245 246 250 254 268 263 240 235 255 270 265 182 235 265 270 268 263 262 265 264 252 231 224 234 243
346 345 340 338 345 13 9 343 351 67 350 331 334 333 335 334 173 160 82 116 340 338 132 343 323 328 335 337 358 38 318 328 0 333 330 349 21 357 285 299 273 273 249 220 258 269 255 255 268 267 263 251 247 249 200 199 227 244 222 245 253 237 242 243 242 253 249 250 258 245 224 242 269 266 218 230 253 265 269 267 265 266 270 267 247 222 232 243
349 347 342 346 6 32 4 357 11 7 332 330 333 335 344 146 158 48 50 25 342 345 261 341 339 324 348 350 345 4 359 333 309 321 315 301 358 353 246 9 344 274 266 237 250 265 275 280 273 262 255 240 238 251 221 211 225 247 271 262 256 238 236 235 232 244 249 244 251 250 236 239 267 272 242 233 254 266 271 273 272 265 266 268 258 231 232 244
352 349 353 7 32 24 8 3 352 335 325 329 335 348 121 149 54 87 70 0 298 319 327 349 343 334 354 358 325 329 353 321 309 335 337 319 328 337 257 93 23 254 265 250 249 273 285 276 257 245 244 225 222 244 230 214 221 230 248 263 276 260 238 230 210 200 235 249 248 248 242 238 251 260 249 240 247 254 258 262 266 265 263 267 264 241 230 239
353 355 11 26 32 21 12 342 336 328 324 332 341 46 143 348 26 107 310 336 305 322 344 334 342 339 338 339 253 307 325 316 335 346 344 335 325 321 280 244 322 295 304 300 294 307 288 263 266 268 242 214 217 237 233 219 210 211 224 237 257 260 252 242 229 207 232 252 254 244 238 237 247 257 257 254 248 248 251 253 258 263 263 266 270 255 227 232
356 6 25 35 35 22 11 346 338 333 330 338 354 117 89 56 39 236 282 339 305 309 333 306 321 324 317 316 315 318 298 281 340 342 339 328 306 299 255 201 203 283 308 315 317 317 296 260 173 248 233 197 206 226 236 226 206 209 214 214 231 247 247 239 239 240 247 255 250 238 241 246 255 250 241 245 251 251 251 252 253 257 259 261 265 259 240 235
8 38 44 47 34 19 8 354 345 339 335 343 99 91 53 57 333 244 282 302 275 292 318 311 320 321 308 310 330 340 316 263 355 341 324 304 293 311 293 200 185 207 272 284 308 315 294 299 188 196 98 182 203 222 239 240 230 226 216 212 232 238 239 240 246 252 260 271 253 230 231 235 245 253 231 242 256 256 256 257 253 251 253 254 258 258 249 239
28 68 56 48 26 11 1 352 346 340 335 349 89 55 65 115 285 313 257 277 284 308 311 308 321 323 328 285 275 27 0 303 356 342 319 309 309 305 300 210 182 180 180 300 307 263 271 276 236 220 54 187 209 222 231 240 250 239 199 208 234 236 238 251 266 270 278 288 268 245 250 250 259 291 289 271 270 266 259 260 257 252 250 250 251 252 249 241
42 90 54 35 18 7 356 350 345 337 331 31 77 51 87 230 253 174 203 296 312 319 319 321 348 330 332 333 290 98 150 255 327 334 319 312 302 261 230 238 181 188 194 327 306 271 273 272 217 250 260 216 221 232 208 214 234 218 199 226 234 211 233 249 253 254 250 266 264 252 260 267 273 281 275 269 275 273 261 257 258 255 252 252 252 249 249 245
19 97 47 24 10 358 350 345 339 334 336 90 77 79 286 283 171 183 230 328 315 31 8 339 354 350 333 321 309 338 335 268 301 329 328 320 298 193 213 256 170 189 203 213 258 254 275 279 259 249 257 226 212 240 221 214 224 217 215 231 202 151 213 245 246 217 222 250 255 250 261 270 275 273 267 270 285 296 295 286 278 267 255 255 262 256 249 243
355 37 58 16 357 347 343 338 333 332 53 73 52 111 322 310 175 231 293 342 309 80 85 244 300 2 343 314 301 330 333 318 323 329 320 311 276 167 221 257 171 192 188 169 228 224 240 283 273 216 229 210 135 229 240 224 224 234 255 261 192 211 212 213 230 233 236 249 256 258 264 268 264 264 275 285 287 300 319 321 315 301 277 258 257 252 245 242
355 350 79 3 352 345 340 336 333 353 83 60 25 122 320 282 269 258 263 316 263 127 108 225 230 348 329 299 296 313 322 312 322 328 315 274 257 189 211 229 196 211 188 167 202 199 172 266 291 172 171 31 56 209 254 239 215 222 263 268 245 255 233 215 222 242 243 249 264 272 269 263 258 255 273 294 289 278 288 300 308 311 305 295 280 267 259 256
9 28 261 359 356 346 342 348 16 48 59 65 214 236 346 284 291 281 243 274 224 183 291 219 182 317 274 268 290 305 308 298 308 312 279 235 271 258 231 205 194 212 201 193 204 201 177 227 264 233 137 324 275 201 213 252 227 210 224 235 231 232 245 239 225 235 250 253 264 275 274 270 260 221 251 291 289 272 278 287 284 290 299 300 290 277 270 267
9 77 352 357 352 343 347 20 51 32 60 94 280 260 320 304 300 309 315 286 235 223 312 218 195 227 254 286 301 314 314 303 300 292 267 236 234 260 229 163 195 212 199 214 212 193 194 221 253 267 259 251 253 228 215 238 248 233 215 216 225 222 229 242 224 219 243 250 257 267 279 279 257 144 205 265 275 284 288 284 276 273 282 284 277 271 270 270
13 20 344 353 348 343 1 71 58 23 125 17 337 257 297 316 298 303 331 351 27 63 5 256 225 228 249 276 303 329 322 302 284 271 264 239 222 241 238 167 217 257 242 259 239 195 200 248 254 262 266 254 260 284 272 240 230 245 231 219 226 221 223 239 233 218 219 233 249 257 272 279 250 133 176 222 252 282 279 272 270 269 275 275 271 272 274 270
37 319 337 358 350 341 27 91 346 30 91 319 315 250 284 304 288 296 321 340 3 1 327 294 249 256 265 266 311 327 326 299 269 253 260 271 248 243 253 240 247 263 252 273 266 202 197 240 253 265 275 255 251 291 293 238 213 233 240 222 225 222 222 239 248 249 240 234 240 243 253 267 257 138 181 193 207 249 261 269 275 277 278 278 277 277 279 277
31 275 311 6 7 8 83 64 339 352 355 329 332 337 313 262 290 314 312 308 325 333 302 290 293 285 291 333 313 301 304 287 269 260 260 278 271 251 267 262 257 265 243 228 226 178 203 220 240 282 295 282 255 294 26 158 206 228 235 219 226 229 230 252 270 265 262 245 240 249 257 262 260 150 174 211 232 253 261 269 278 282 283 286 287 283 281 281
342 219 252 5 26 45 86 57 23 195 338 341 342 346 345 302 283 301 291 279 302 345 291 259 302 290 269 314 296 278 267 242 258 284 271 273 286 285 283 283 274 269 260 253 236 141 220 238 210 268 286 288 292 291 47 75 206 214 224 218 223 223 220 234 241 233 248 243 231 240 252 263 269 246 217 237 255 269 269 268 280 285 279 282 283 279 276 275
0 44 288 344 29 50 81 71 54 65 357 357 346 352 352 324 305 306 282 254 31 357 307 243 20 19 334 332 324 307 275 228 238 276 282 280 288 287 304 312 297 286 282 275 249 147 200 255 229 239 250 261 275 267 219 259 250 231 224 213 217 220 215 220 225 228 240 237 233 242 243 260 274 270 255 250 251 264 272 282 292 284 268 268 274 280 282 274
41 32 358 344 350 36 73 75 43 24 1 1 0 0 343 323 324 336 304 250 348 339 305 203 74 37 343 333 330 314 301 279 259 270 278 278 287 295 302 302 291 293 313 309 189 141 246 270 243 237 241 251 266 262 235 241 252 249 242 230 228 228 217 219 227 234 243 248 252 250 239 246 266 269 268 269 267 269 283 294 290 283 276 270 270 280 282 272
25 123 108 350 304 346 34 7 4 5 282 210 167 3 336 334 346 349 328 319 330 329 319 252 26 1 327 321 322 302 306 311 288 276 285 288 306 315 315 311 300 328 33 48 124 133 272 270 255 247 251 256 264 261 241 238 245 246 243 243 245 243 230 230 238 244 242 240 253 261 257 254 264 271 279 293 304 295 287 286 282 283 286 281 272 270 268 265
27 82 99 344 303 266 290 312 329 340 297 249 195 24 350 337 340 337 314 310 318 317 325 290 298 323 322 315 312 297 302 313 304 299 304 307 314 317 315 316 312 60 64 55 231 217 242 265 271 266 269 273 269 253 233 228 234 236 237 243 244 242 239 240 248 254 251 248 256 269 279 276 272 278 290 304 311 290 277 283 284 287 291 291 290 282 271 269
49 46 348 338 323 280 273 309 327 327 330 336 340 11 351 322 327 331 312 274 276 288 18 315 311 322 324 315 304 285 272 273 283 287 294 305 310 311 305 295 281 304 337 335 274 207 199 270 301 288 284 286 266 240 238 229 227 231 242 249 246 245 249 249 252 255 255 257 260 266 274 274 274 287 298 297 296 281 274 286 291 293 297 299 298 293 283 279
83 120 346 319 329 325 293 311 342 314 296 25 11 354 341 317 327 332 314 250 236 256 305 327 322 323 319 307 294 285 279 278 278 275 275 281 282 280 277 266 271 307 317 310 298 246 218 277 306 303 303 304 168 16 324 222 199 219 245 259 258 253 252 253 254 247 240 248 259 261 261 267 285 332 315 293 290 282 280 291 297 299 300 300 299 297 291 286
65 121 125 313 315 356 346 327 339 302 282 93 6 341 321 309 319 326 317 262 232 250 271 312 315 313 308 298 291 295 302 298 287 280 277 268 259 259 261 257 263 280 285 290 302 269 239 290 306 309 313 305 334 20 39 122 129 186 259 271 269 257 253 258 262 255 241 241 254 260 261 277 313 330 313 301 302 295 290 300 303 300 299 299 296 292 289 287